Location: Arrodets-la-Barthe
(43.0306°N, 0.2829°E)
Time: 11:12:03
(UTC+00:00)

Iridium 4 Rocket - Pass Details

Date: 03 June 2022
Orbit: 585 x 902 km, 86.9° (Epoch: 01 July)

Event Time Altitude Azimuth Distance (km) Brightness Sun altitude
Rises 22:58:17 0° 347° (NNW) 3,125 8.1 -23.2°
Reaches altitude 10° 23:00:42 10° 337° (NNW) 2,252 7.0 -23.3°
Maximum altitude 23:05:06 32° 276° (W) 1,332 4.9 -23.5°
Enters shadow 23:07:11 24° 237° (WSW) 1,614 5.0 -23.6°
